EN

Hourly Weather Bishop Auckland

Today, 25 January, Monday

Time Temperature Precipitation Wind Pressure Humidity
00:00 -3°C° 0 mm 4 mps 742 mmHg 80%
01:00 -3°C° 0 mm 4 mps 743 mmHg 81%
02:00 -3°C° 0 mm 4 mps 743 mmHg 82%
03:00 -2°C° 0 mm 5 mps 743 mmHg 83%
04:00 -2°C° 0 mm 5 mps 743 mmHg 82%
05:00 -3°C° 0 mm 6 mps 743 mmHg 82%
06:00 -2°C° 0 mm 6 mps 743 mmHg 84%
07:00 -2°C° 0 mm 7 mps 743 mmHg 80%
08:00 -2°C° 0 mm 7 mps 743 mmHg 77%
09:00 -1°C° 0 mm 8 mps 744 mmHg 74%
10:00 -1°C° 0 mm 8 mps 744 mmHg 73%
11:00 0°C° 0 mm 9 mps 744 mmHg 71%
12:00 +1°C° 0 mm 9 mps 745 mmHg 70%
13:00 +1°C° 0 mm 8 mps 745 mmHg 72%
14:00 +2°C° 0 mm 7 mps 746 mmHg 73%
15:00 +2°C° 0 mm 6 mps 747 mmHg 75%
16:00 +1°C° 0 mm 6 mps 747 mmHg 79%
17:00 0°C° 0 mm 5 mps 748 mmHg 82%
18:00 -1°C° 0 mm 5 mps 749 mmHg 86%
19:00 -1°C° 0 mm 5 mps 749 mmHg 87%
20:00 -1°C° 0 mm 5 mps 749 mmHg 87%
21:00 -1°C° 0 mm 5 mps 750 mmHg 88%
22:00 -1°C° 0 mm 4 mps 750 mmHg 89%
23:00 -1°C° 0 mm 4 mps 750 mmHg 90%

Tomorrow, 26 January, Tuesday

Time Temperature Precipitation Wind Pressure Humidity
00:00 0°C° 0 mm 3 mps 750 mmHg 90%
01:00 0°C° 0 mm 3 mps 750 mmHg 90%
02:00 0°C° 0 mm 3 mps 751 mmHg 90%
03:00 0°C° 0 mm 3 mps 751 mmHg 89%
04:00 0°C° 0 mm 3 mps 751 mmHg 90%
05:00 0°C° 0 mm 3 mps 751 mmHg 90%
06:00 0°C° 0 mm 3 mps 751 mmHg 90%
07:00 0°C° 0 mm 3 mps 751 mmHg 90%
08:00 0°C° 0 mm 3 mps 752 mmHg 90%
09:00 +1°C° 0 mm 2 mps 752 mmHg 90%
10:00 +2°C° 0 mm 2 mps 752 mmHg 89%
11:00 +2°C° 0 mm 3 mps 752 mmHg 88%
12:00 +3°C° 0 mm 3 mps 752 mmHg 88%
13:00 +2°C° 0.1 mm 3 mps 751 mmHg 91%
14:00 +3°C° 0.1 mm 2 mps 751 mmHg 94%
15:00 +2°C° 0.1 mm 2 mps 750 mmHg 97%
16:00 +2°C° 0.9 mm 2 mps 750 mmHg 97%
17:00 +1°C° 0.9 mm 3 mps 750 mmHg 98%
18:00 +1°C° 0.9 mm 3 mps 750 mmHg 98%
19:00 +2°C° 0.7 mm 2 mps 750 mmHg 98%
20:00 +2°C° 0.7 mm 2 mps 750 mmHg 98%
21:00 +2°C° 0.7 mm 2 mps 749 mmHg 98%
22:00 +3°C° 0 mm 1 mps 750 mmHg 98%
23:00 +3°C° 0 mm 1 mps 750 mmHg 98%

Day after tomorrow, 27 January, Wednesday

Time Temperature Precipitation Wind Pressure Humidity
00:00 +3°C° 0 mm 1 mps 750 mmHg 97%
01:00 +3°C° 0 mm 1 mps 750 mmHg 97%
02:00 +3°C° 0 mm 1 mps 749 mmHg 96%
03:00 +4°C° 0 mm 1 mps 749 mmHg 96%
04:00 +2°C° 0 mm 0 mps 749 mmHg 95%
05:00 +2°C° 0 mm 0 mps 750 mmHg 95%
06:00 +2°C° 0 mm 0 mps 750 mmHg 94%
07:00 +2°C° 0 mm 0 mps 750 mmHg 95%
08:00 +3°C° 0 mm 0 mps 750 mmHg 95%
09:00 +3°C° 0 mm 0 mps 750 mmHg 95%
10:00 +3°C° 0 mm 0 mps 750 mmHg 94%
11:00 +5°C° 0 mm 1 mps 750 mmHg 94%
12:00 +6°C° 0 mm 1 mps 751 mmHg 93%
13:00 +5°C° 0.1 mm 1 mps 750 mmHg 94%
14:00 +5°C° 0.1 mm 1 mps 749 mmHg 95%
15:00 +4°C° 0.1 mm 2 mps 749 mmHg 96%
16:00 +4°C° 0.1 mm 2 mps 749 mmHg 97%
17:00 +4°C° 0.1 mm 2 mps 748 mmHg 97%
18:00 +4°C° 0.1 mm 2 mps 748 mmHg 98%
19:00 +4°C° 0.1 mm 2 mps 747 mmHg 98%
20:00 +4°C° 0.1 mm 2 mps 747 mmHg 98%
21:00 +4°C° 0.1 mm 2 mps 746 mmHg 98%
22:00 +4°C° 1.1 mm 2 mps 745 mmHg 98%
23:00 +4°C° 1.1 mm 2 mps 744 mmHg 98%

28 January, Thursday

Time Temperature Precipitation Wind Pressure Humidity
00:00 +4°C° 1.1 mm 2 mps 743 mmHg 99%
01:00 +4°C° 1.6 mm 2 mps 742 mmHg 99%
02:00 +5°C° 1.6 mm 2 mps 740 mmHg 98%
03:00 +5°C° 1.6 mm 2 mps 739 mmHg 98%
04:00 +5°C° 0.5 mm 3 mps 739 mmHg 97%
05:00 +5°C° 0.5 mm 4 mps 739 mmHg 97%
06:00 +6°C° 0.5 mm 4 mps 738 mmHg 96%
07:00 +6°C° 0 mm 5 mps 738 mmHg 93%
08:00 +5°C° 0 mm 6 mps 739 mmHg 91%
09:00 +5°C° 0 mm 7 mps 739 mmHg 88%
10:00 +6°C° 0 mm 7 mps 739 mmHg 86%
11:00 +6°C° 0 mm 8 mps 739 mmHg 84%
12:00 +7°C° 0 mm 8 mps 740 mmHg 83%
13:00 +7°C° 0 mm 8 mps 739 mmHg 83%
14:00 +7°C° 0 mm 8 mps 739 mmHg 83%
15:00 +7°C° 0 mm 8 mps 739 mmHg 83%
16:00 +6°C° 0.1 mm 7 mps 738 mmHg 85%
17:00 +7°C° 0.1 mm 6 mps 738 mmHg 88%
18:00 +7°C° 0.1 mm 5 mps 737 mmHg 91%
19:00 +7°C° 0.2 mm 5 mps 736 mmHg 92%
20:00 +7°C° 0.2 mm 4 mps 735 mmHg 93%
21:00 +8°C° 0.2 mm 3 mps 735 mmHg 94%
22:00 +7°C° 1.3 mm 4 mps 735 mmHg 94%
23:00 +6°C° 1.3 mm 5 mps 734 mmHg 93%

29 January, Friday

Time Temperature Precipitation Wind Pressure Humidity
00:00 +5°C° 1.3 mm 6 mps 734 mmHg 93%
01:00 +5°C° 0.9 mm 6 mps 735 mmHg 90%
02:00 +5°C° 0.9 mm 7 mps 736 mmHg 87%
03:00 +4°C° 0.9 mm 7 mps 736 mmHg 84%
04:00 +4°C° 0 mm 7 mps 736 mmHg 84%
05:00 +4°C° 0 mm 7 mps 737 mmHg 83%
06:00 +2°C° 0 mm 8 mps 737 mmHg 83%
07:00 +3°C° 0 mm 7 mps 737 mmHg 83%
08:00 +3°C° 0 mm 7 mps 737 mmHg 84%
09:00 +3°C° 0 mm 7 mps 737 mmHg 84%
10:00 +4°C° 0.3 mm 6 mps 737 mmHg 85%
11:00 +4°C° 0.3 mm 6 mps 738 mmHg 86%
12:00 +5°C° 0.3 mm 5 mps 738 mmHg 87%
13:00 +3°C° 1.1 mm 5 mps 738 mmHg 89%
14:00 +3°C° 1.1 mm 6 mps 738 mmHg 91%
15:00 +2°C° 1.1 mm 6 mps 739 mmHg 94%
16:00 +2°C° 0.3 mm 6 mps 739 mmHg 94%
17:00 0°C° 0.3 mm 7 mps 740 mmHg 95%
18:00 0°C° 0.3 mm 7 mps 741 mmHg 95%
19:00 0°C° 0.2 mm 7 mps 741 mmHg 91%
20:00 +1°C° 0.2 mm 6 mps 742 mmHg 87%
21:00 -1°C° 0.2 mm 6 mps 743 mmHg 82%
22:00 0°C° 0 mm 5 mps 744 mmHg 82%
23:00 -1°C° 0 mm 4 mps 745 mmHg 81%

30 January, Saturday

Time Temperature Precipitation Wind Pressure Humidity
00:00 0°C° 0 mm 3 mps 746 mmHg 81%
01:00 0°C° 0 mm 3 mps 747 mmHg 83%
02:00 0°C° 0 mm 3 mps 748 mmHg 85%
03:00 -2°C° 0 mm 4 mps 748 mmHg 87%
04:00 -1°C° 0 mm 3 mps 749 mmHg 87%
05:00 -1°C° 0 mm 3 mps 750 mmHg 87%
06:00 -1°C° 0 mm 3 mps 750 mmHg 86%
07:00 0°C° 0 mm 3 mps 751 mmHg 86%
08:00 0°C° 0 mm 3 mps 752 mmHg 85%
09:00 0°C° 0 mm 3 mps 752 mmHg 85%
10:00 +1°C° 0 mm 3 mps 753 mmHg 81%
11:00 +2°C° 0 mm 2 mps 753 mmHg 77%
12:00 +3°C° 0 mm 2 mps 753 mmHg 74%
13:00 +3°C° 0 mm 2 mps 753 mmHg 73%
14:00 +3°C° 0 mm 2 mps 753 mmHg 72%
15:00 +5°C° 0 mm 1 mps 753 mmHg 72%
16:00 +3°C° 0 mm 2 mps 753 mmHg 75%
17:00 +2°C° 0 mm 2 mps 753 mmHg 78%
18:00 +1°C° 0 mm 2 mps 754 mmHg 81%
19:00 +1°C° 0 mm 2 mps 753 mmHg 81%
20:00 -1°C° 0 mm 3 mps 753 mmHg 82%
21:00 -1°C° 0 mm 3 mps 752 mmHg 82%
22:00 -1°C° 0 mm 3 mps 752 mmHg 83%
23:00 -1°C° 0 mm 4 mps 751 mmHg 83%
Show more